Home   Weather   Eau Claire   Past weeks

Flag for USA Past Weather in Eau Claire, Wisconsin, USA — Yesterday and Last 2 Weeks

Now
30 °F

Overcast.


Feels Like: 22 °F
Forecast: 26 / 33 °F
Wind: 8 mph from Southwest

Location: Eau Claire County Airport

Current Time: Dec 3, 2016 at 5:51:26 am

Latest Report: Dec 3, 2016 at 4:56 am


Visibility: 10 mi

Pressure: 30.33 "Hg

Humidity: 82%

Dew Point: 25 °F

Location of Eau ClaireLocation

Past Weather in Eau Claire — Graph

°F

Eau Claire Temperature Yesterday

Maximum temperature yesterday: 32 °F (at 12:56 am)
Minimum temperature yesterday: 30 °F (at 3:56 am)
Average temperature yesterday: 31 °F

High & Low Weather Summary for the Past Weeks

 TemperatureHumidityPressure
High62 °F (Nov 18, 12:56 pm)100% (Nov 23, 3:56 am)30.46 "Hg (Nov 23, 3:56 am)
Low17 °F (Nov 21, 5:56 am)45% (Nov 21, 1:56 pm)29.01 "Hg (Nov 28, 8:56 pm)
Average34 °F82%29.96 "Hg
* Reported Nov 18 3:56 am — Dec 3 3:56 am, Eau Claire, Weather by CustomWeather, © 2016

Note: Actual official high and low records may vary slightly from our data, if they occured in-between our weather recording intervals... More about our weather records

Advertising

Eau Claire Weather History for the Previous 24 Hours

Scroll right to see more
 ConditionsComfort  
Time TempWeatherWind HumidityBarometerVisibility
3:56 am
Sat, Dec 3
30 °FOvercast.5 mph79%30.32 "Hg10 mi
2:56 am30 °FOvercast.5 mph82%30.32 "Hg10 mi
1:56 am30 °FOvercast.8 mph85%30.32 "Hg10 mi
12:56 am30 °FOvercast.6 mph82%30.32 "Hg10 mi
11:56 pm
Fri, Dec 2
31 °FOvercast.5 mph79%30.32 "Hg10 mi
10:56 pm31 °FOvercast.6 mph76%30.32 "Hg10 mi
9:56 pm32 °FOvercast.5 mph66%30.32 "Hg10 mi
8:56 pm31 °FOvercast.8 mph73%30.31 "Hg10 mi
7:56 pm31 °FOvercast.6 mph76%30.30 "Hg10 mi
6:56 pm31 °FOvercast.5 mph79%30.31 "Hg10 mi
5:56 pm32 °FOvercast.6 mph73%30.30 "Hg10 mi
4:56 pm32 °FOvercast.7 mph73%30.29 "Hg10 mi
3:56 pm32 °FOvercast.3 mph73%30.27 "Hg10 mi
2:56 pm32 °FOvercast.8 mph69%30.25 "Hg10 mi
1:56 pm32 °FOvercast.8 mph73%30.25 "Hg10 mi
12:56 pm32 °FOvercast.5 mph69%30.24 "Hg10 mi
11:56 am32 °FOvercast.9 mph69%30.24 "Hg10 mi
10:56 am32 °FOvercast.7 mph66%30.23 "Hg10 mi
9:56 am31 °FOvercast.5 mph67%30.22 "Hg10 mi
8:56 am30 °FOvercast.6 mph69%30.20 "Hg10 mi
7:56 am30 °FOvercast.9 mph69%30.18 "Hg10 mi
6:56 am30 °FOvercast.6 mph69%30.16 "Hg10 mi
5:56 am30 °FOvercast.9 mph75%30.14 "Hg10 mi
Weather by CustomWeather, © 2016

See weather overviewHow to use our weather pages